Adak, AK

3:06 AM HST on February 27, 2017 (GMT -1000)
Adak

Weather History for PADK - November, 2012

Change the Weather History Date:

Sunday, November 18, 2012

  Actual Average Record
Temperature  
Mean Temperature 38 °F -  
Max Temperature 42 °F 41 °F 48 °F (1951)
Min Temperature 33 °F 32 °F 20 °F (1962)
Degree Days  
Heating Degree Days 28    
Moisture  
Dew Point 31 °F    
Average Humidity 74    
Maximum Humidity 87    
Minimum Humidity 61    
Precipitation  
Precipitation 0.00 in - - ()
Sea Level Pressure  
Sea Level Pressure 30.26 in    
Wind  
Wind Speed 13 mph (NNW)    
Max Wind Speed 20 mph    
Max Gust Speed 33 mph    
Visibility 10 miles    
Events      
Averages and records for this station are not official NWS values.
T = Trace of Precipitation, MM = Missing Value Source: NWS Daily Summary

Daily Weather History Graph

Daily Weather History Graph

Search for Another Location

Airport or City:

Trip Planner

Search our weather history database for the weather conditions in past years. The results will help you decide how hot, cold, wet, or windy it might be!

Date:

Astronomy

Nov. 18, 2012 Rise Set
Actual Time 9:12 AM HST 5:50 PM HST
Civil Twilight 8:34 AM HST 6:28 PM HST
Nautical Twilight 7:53 AM HST 7:10 PM HST
Astronomical Twilight 7:13 AM HST 7:50 PM HST
Moon 1:38 PM HST (11/18) 11:40 PM HST (11/18)
Length of Visible Light 9h 54m
Length of Day
8h 38m
Waxing Crescent, 32% of the Moon is Illuminated
Nov 18
Waxing Crescent
Nov 20
First Quarter
Nov 28
Full
Dec 6
Last Quarter
Dec 12
New

Hourly Weather History & Observations

Time (HST) Temp. Windchill Dew Point Humidity Pressure Visibility Wind Dir Wind Speed Gust Speed Precip Events Conditions
12:16 AM 41.0 °F 31.9 °F 30.2 °F 65% 30.13 in 10.0 mi NW 19.6 mph 33.4 mph N/A   Mostly Cloudy
12:36 AM 41.0 °F 32.5 °F 30.2 °F 65% 30.14 in 10.0 mi NW 17.3 mph 29.9 mph N/A   Mostly Cloudy
12:56 AM 41.0 °F 32.2 °F 32.0 °F 70% 30.14 in 10.0 mi NW 18.4 mph 26.5 mph N/A   Overcast
1:16 AM 39.2 °F 29.8 °F 32.0 °F 75% 30.15 in 10.0 mi WNW 18.4 mph 25.3 mph N/A   Overcast
1:36 AM 39.2 °F 29.8 °F 32.0 °F 75% 30.16 in 10.0 mi NW 18.4 mph 28.8 mph N/A   Overcast
1:56 AM 41.0 °F 31.9 °F 32.0 °F 70% 30.16 in 10.0 mi WNW 19.6 mph 28.8 mph N/A   Overcast
2:16 AM 41.0 °F 31.9 °F 32.0 °F 70% 30.18 in 10.0 mi WNW 19.6 mph 27.6 mph N/A   Overcast
2:36 AM 41.0 °F 32.5 °F 30.2 °F 65% 30.18 in 10.0 mi WNW 17.3 mph 23.0 mph N/A   Overcast
2:56 AM 41.0 °F 36.4 °F 30.2 °F 65% 30.18 in 10.0 mi NW 6.9 mph 24.2 mph N/A   Overcast
3:16 AM 39.2 °F 30.8 °F 32.0 °F 75% 30.19 in 10.0 mi NW 15.0 mph 26.5 mph N/A   Overcast
3:36 AM 41.0 °F 32.8 °F 30.2 °F 65% 30.21 in 10.0 mi WNW 16.1 mph 28.8 mph N/A   Overcast
3:56 AM 41.0 °F 32.5 °F 30.2 °F 65% 30.21 in 10.0 mi NW 17.3 mph 27.6 mph N/A   Overcast
4:16 AM 41.0 °F 32.8 °F 30.2 °F 65% 30.21 in 10.0 mi NW 16.1 mph 20.7 mph N/A   Overcast
4:36 AM 39.2 °F 31.6 °F 32.0 °F 75% 30.23 in 10.0 mi NW 12.7 mph 20.7 mph N/A   Overcast
4:56 AM 39.2 °F 31.6 °F 30.2 °F 70% 30.23 in 10.0 mi NW 12.7 mph 21.9 mph N/A   Mostly Cloudy
5:16 AM 39.2 °F 32.0 °F 30.2 °F 70% 30.24 in 10.0 mi NW 11.5 mph 20.7 mph N/A   Mostly Cloudy
5:36 AM 39.2 °F 32.5 °F 30.2 °F 70% 30.24 in 10.0 mi NW 10.4 mph 17.3 mph N/A   Overcast
5:56 AM 41.0 °F 39.0 °F 30.2 °F 65% 30.23 in 10.0 mi NW 3.5 mph - N/A   Overcast
6:16 AM 39.2 °F 32.5 °F 33.8 °F 81% 30.24 in 10.0 mi NNW 10.4 mph 20.7 mph N/A   Overcast
6:36 AM 39.2 °F 34.2 °F 30.2 °F 70% 30.24 in 10.0 mi NW 6.9 mph - N/A   Mostly Cloudy
6:56 AM 39.2 °F 32.0 °F 30.2 °F 70% 30.24 in 10.0 mi NW 11.5 mph 19.6 mph N/A   Partly Cloudy
7:16 AM 39.2 °F 35.0 °F 30.2 °F 70% 30.26 in 10.0 mi NNW 5.8 mph - N/A   Partly Cloudy
7:36 AM 39.2 °F 33.0 °F 30.2 °F 70% 30.26 in 10.0 mi WNW 9.2 mph 17.3 mph N/A   Scattered Clouds
7:56 AM 39.2 °F 32.5 °F 28.4 °F 65% 30.26 in 10.0 mi NW 10.4 mph - N/A   Mostly Cloudy
8:16 AM 39.2 °F 34.2 °F 30.2 °F 70% 30.27 in 10.0 mi NW 6.9 mph - N/A   Overcast
8:36 AM 39.2 °F 34.2 °F 28.4 °F 65% 30.27 in 10.0 mi WSW 6.9 mph - N/A   Overcast
8:56 AM 39.2 °F 35.9 °F 30.2 °F 70% 30.28 in 10.0 mi West 4.6 mph - N/A   Overcast
9:16 AM 39.2 °F 37.0 °F 30.2 °F 70% 30.29 in 10.0 mi NW 3.5 mph - N/A   Overcast
9:36 AM 39.2 °F 35.9 °F 30.2 °F 70% 30.29 in 10.0 mi NW 4.6 mph - N/A   Overcast
9:56 AM 39.2 °F 31.2 °F 30.2 °F 70% 30.30 in 10.0 mi NNW 13.8 mph 17.3 mph N/A   Overcast
10:16 AM 39.2 °F 35.0 °F 30.2 °F 70% 30.30 in 10.0 mi NNW 5.8 mph - N/A   Overcast
10:36 AM 41.0 °F 34.3 °F 30.2 °F 65% 30.30 in 10.0 mi NNW 11.5 mph 17.3 mph N/A   Mostly Cloudy
10:56 AM 41.0 °F 33.1 °F 30.2 °F 65% 30.30 in 10.0 mi NNW 15.0 mph - N/A   Partly Cloudy
11:16 AM 41.0 °F 32.2 °F 30.2 °F 65% 30.30 in 10.0 mi NNW 18.4 mph 25.3 mph N/A   Scattered Clouds
11:36 AM 39.2 °F 30.8 °F 30.2 °F 70% 30.31 in 10.0 mi NNW 15.0 mph - N/A   Mostly Cloudy
11:56 AM 41.0 °F 32.8 °F 30.2 °F 65% 30.31 in 10.0 mi NNW 16.1 mph - N/A   Mostly Cloudy
12:16 PM 42.8 °F 34.5 °F 30.2 °F 61% 30.31 in 10.0 mi NNW 18.4 mph - N/A   Scattered Clouds
12:36 PM 41.0 °F 34.3 °F 30.2 °F 65% 30.32 in 10.0 mi NNW 11.5 mph - N/A   Partly Cloudy
12:56 PM 41.0 °F 33.9 °F 32.0 °F 70% 30.32 in 10.0 mi North 12.7 mph - N/A   Scattered Clouds
1:16 PM 39.2 °F 32.5 °F 30.2 °F 70% 30.31 in 10.0 mi NNW 10.4 mph - N/A   Scattered Clouds
1:36 PM 42.8 °F 35.8 °F 32.0 °F 66% 30.31 in 10.0 mi NNW 13.8 mph 21.9 mph N/A   Partly Cloudy
1:56 PM 42.8 °F 35.4 °F 30.2 °F 61% 30.30 in 10.0 mi North 15.0 mph - N/A   Partly Cloudy
2:16 PM 41.0 °F 33.5 °F 33.8 °F 76% 30.30 in 10.0 mi North 13.8 mph 20.7 mph N/A   Mostly Cloudy
2:36 PM 39.2 °F 30.8 °F 30.2 °F 70% 30.29 in 10.0 mi NNW 15.0 mph - N/A   Scattered Clouds
2:56 PM 39.2 °F 31.6 °F 32.0 °F 75% 30.29 in 10.0 mi NNW 12.7 mph 18.4 mph N/A   Clear
3:16 PM 39.2 °F 34.2 °F 30.2 °F 70% 30.29 in 10.0 mi NNW 6.9 mph - N/A   Partly Cloudy
3:36 PM 39.2 °F 35.9 °F 33.8 °F 81% 30.28 in 10.0 mi North 4.6 mph - N/A   Clear
3:56 PM 39.2 °F 33.0 °F 33.8 °F 81% 30.27 in 10.0 mi NNE 9.2 mph - N/A   Partly Cloudy
4:16 PM 39.2 °F 33.0 °F 35.6 °F 87% 30.28 in 7.0 mi NNE 9.2 mph - N/A   Mostly Cloudy
4:36 PM 39.2 °F 33.0 °F 33.8 °F 81% 30.28 in 10.0 mi North 9.2 mph - N/A   Overcast
4:56 PM 39.2 °F 33.6 °F 33.8 °F 81% 30.27 in 10.0 mi NNE 8.1 mph - N/A   Overcast
5:16 PM 39.2 °F 33.0 °F 33.8 °F 81% 30.27 in 10.0 mi NNE 9.2 mph - N/A   Mostly Cloudy
5:36 PM 37.4 °F 30.8 °F 33.8 °F 87% 30.26 in 10.0 mi NE 9.2 mph - N/A   Mostly Cloudy
5:56 PM 37.4 °F 30.8 °F 32.0 °F 81% 30.26 in 10.0 mi NNE 9.2 mph - N/A   Mostly Cloudy
6:16 PM 35.6 °F 29.2 °F 30.2 °F 81% 30.27 in 10.0 mi NNE 8.1 mph - N/A   Scattered Clouds
6:36 PM 35.6 °F - 30.2 °F 81% 30.27 in 10.0 mi Calm Calm - N/A   Mostly Cloudy
6:56 PM 33.8 °F 28.6 °F 30.2 °F 87% 30.28 in 10.0 mi North 5.8 mph - N/A   Overcast
7:16 PM 35.6 °F 31.7 °F 32.0 °F 87% 30.29 in 10.0 mi North 4.6 mph - N/A   Mostly Cloudy
7:36 PM 33.8 °F 30.8 °F 30.2 °F 87% 30.28 in 10.0 mi NNW 3.5 mph - N/A   Mostly Cloudy
7:56 PM 35.6 °F - 32.0 °F 87% 30.28 in 10.0 mi Calm Calm - N/A   Mostly Cloudy
8:16 PM 35.6 °F - 30.2 °F 81% 30.28 in 10.0 mi Calm Calm - N/A   Overcast
8:36 PM 35.6 °F 32.8 °F 30.2 °F 81% 30.27 in 10.0 mi NNW 3.5 mph - N/A   Overcast
8:56 PM 35.6 °F 30.7 °F 32.0 °F 87% 30.26 in 10.0 mi NNW 5.8 mph - N/A   Overcast
9:16 PM 35.6 °F 30.7 °F 32.0 °F 87% 30.26 in 10.0 mi North 5.8 mph - N/A   Overcast
9:36 PM 35.6 °F 32.8 °F 32.0 °F 87% 30.26 in 10.0 mi West 3.5 mph - N/A   Overcast
9:56 PM 35.6 °F - 32.0 °F 87% 30.26 in 10.0 mi Calm Calm - N/A   Overcast
10:16 PM 35.6 °F 32.8 °F 32.0 °F 87% 30.26 in 10.0 mi WSW 3.5 mph - N/A   Overcast
10:36 PM 35.6 °F 30.7 °F 32.0 °F 87% 30.26 in 10.0 mi SW 5.8 mph - N/A   Overcast
10:56 PM 35.6 °F 32.8 °F 32.0 °F 87% 30.26 in 10.0 mi SSW 3.5 mph - N/A   Overcast
11:16 PM 37.4 °F 33.8 °F 30.2 °F 75% 30.26 in 10.0 mi South 4.6 mph - N/A   Overcast
11:36 PM 37.4 °F 32.1 °F 30.2 °F 75% 30.25 in 10.0 mi ESE 6.9 mph - N/A   Overcast
11:56 PM 37.4 °F 32.8 °F 30.2 °F 75% 30.24 in 10.0 mi East 5.8 mph - N/A   Overcast